This demonstration page uses our WeatherBlox Daily Observations layout. Learn more.

Left ArrowRight Arrow

Hourly Observations for March 9, 2015

Temp ( °F °C ) Dew Point ( °F °C ) Humidity (%) Winds ( mph kmh ) Pressure ( in mb ) Visibility ( mi km ) Precip ( " mm )
12:53 am 00:53 Clear 51 10.6 43 6.1 74 74 Calm 30.01 1016 10 16 0.00 0.00
1:53 am 01:53 Clear 48 8.9 43 6.1 83 83 Calm 30.01 1016 10 16 0.00 0.00
2:53 am 02:53 Clear 46 7.8 42 5.6 86 86 Calm 30.02 1017 10 16 0.00 0.00
3:53 am 03:53 Clear 45 7.2 41 5 86 86 Calm 30.01 1016 10 16 0.00 0.00
4:53 am 04:53 Clear 44 6.7 40 4.4 85 85 NNW 3 6 30.01 1016 10 16 0.00 0.00
5:53 am 05:53 Clear 43 6.1 39 3.9 86 86 Calm 30.01 1016 10 16 0.00 0.00
6:53 am 06:53 Clear 41 5 38 3.3 89 89 Calm 30.01 1016 10 16 0.00 0.00
7:53 am 07:53 Sunny 41 5 37 2.8 86 86 Calm 30.01 1016 10 16 0.00 0.00
8:53 am 08:53 Sunny 46 7.8 41 5 83 83 Calm 30.01 1016 10 16 0.00 0.00
9:53 am 09:53 Sunny 57 13.9 44 6.7 62 62 Calm 29.99 1016 10 16 0.00 0.00
10:53 am 10:53 Sunny 70 21.1 41 5 35 35 NNW 5 7 29.99 1016 10 16 0.00 0.00
11:53 am 11:53 Sunny 75 24 37 3 25 25 undefined N/A 29.97 1015 10 16 0.00 0.00
12:53 pm 12:53 Sunny 80 26.7 41 5 25 25 VRB 5 7 29.95 1014 10 16 0.00 0.00
1:53 pm 13:53 Sunny 82 27.8 36 2.2 19 19 Calm 29.91 1013 10 16 0.00 0.00
2:53 pm 14:53 Sunny 84 28.9 39 3.9 20 20 Calm 29.88 1012 10 16 0.00 0.00
3:53 pm 15:53 Sunny 86 30 34 1.1 15 15 Calm 29.87 1011 10 16 0.00 0.00
4:53 pm 16:53 Sunny 85 29.4 22 -5.6 10 10 SW 5 7 29.85 1011 10 16 0.00 0.00
5:53 pm 17:53 Sunny 83 28.3 31 -0.6 15 15 SSE 5 7 29.85 1011 10 16 0.00 0.00
6:53 pm 18:53 Sunny 76 24.4 42 5.6 30 30 ESE 3 6 29.85 1011 10 16 0.00 0.00
7:53 pm 19:53 Clear 69 20.6 38 3.3 32 32 Calm 29.86 1011 10 16 0.00 0.00
8:53 pm 20:53 Clear 63 17.2 44 6.7 50 50 Calm 29.88 1012 10 16 0.00 0.00
9:53 pm 21:53 Clear 63 17.2 42 5.6 47 47 S 3 6 29.90 1012 10 16 0.00 0.00
10:53 pm 22:53 Clear 61 16.1 45 7.2 56 56 Calm 29.91 1013 10 16 0.00 0.00
11:53 pm 23:53 Clear 55 12.8 44 6.7 67 67 NNE 6 9 29.93 1013 10 16 0.00 0.00

Powered by AerisWeather